Dr. Bill's Marine Weather

Coastal Marine Forecast

       Alabama   Florida   Louisiana   Mississippi

Printer Friendly AL  FL  LA  MS

Data Buoys:   Western Gulf of Mexico    Eastern Gulf of Mexico
**********************************************************************
  Alabama
100 PM CDT THU APR 27 2017

ALZ051>064-271900-
SOUTHWEST ALABAMA
  
CITY           SKY/WX    TMP DP  RH WIND       PRES   REMARKS
MOBILE         MOSUNNY   83  64  52 SW10      29.82F                  
6HR MIN TEMP:  64; 6HR MAX TEMP:  83; 6HR PCP: TRACE;                

BROOKLEY FIELD MOSUNNY   78  68  71 SE6       29.83F                  
6HR MIN TEMP:  67; 6HR MAX TEMP:  80; 6HR PCP:  0.02;                

EVERGREEN      PTSUNNY   82  69  64 SW13      29.81F                  
6HR MIN TEMP:  67; 6HR MAX TEMP:  83; 6HR PCP:  0.08;                

**********************************************************************
  Florida
200 PM EDT THU APR 27 2017

FLZ001>010-012>015-112-114-115-271900-
PANHANDLE FLORIDA
  
CITY           SKY/WX    TMP DP  RH WIND       PRES   REMARKS
PENSACOLA      CLOUDY    83  73  72 S16G29    29.82F                  
PENSACOLA NAS  PTSUNNY   80  73  79 S14G23    29.82F                  
MILTON NAS     CLOUDY    78  72  81 W6        29.82                   
CRESTVIEW      PTSUNNY   85  71  63 SW14G23   29.84F                  
DUKE FIELD     PTSUNNY   81  73  75 S18G24    29.84S                  
VALPARAISO     CLOUDY    78  73  84 SW17      29.84F FOG              
MARY ESTHER    CLOUDY    80  70  73 S14       29.84                   
TRI COUNTY     CLOUDY    79  72  79 S12G23    29.85S                  
PANAMA CITY    CLOUDY    80  72  76 S18G25    29.86F                  
TYNDALL AFB    PTSUNNY   80  73  81 S17       29.87F                  
APALACHICOLA   PTSUNNY   81  75  82 S20       29.89F                  

STATION/POSITION SKY/WX   TEMP    WIND        PRES    WAVE   SWELL
                          AIR SEA DIR/SP/G            HT/PER HT/PER
                          (F)     (DEG/KT/KT) (MB)    (FT/S) (FT/S)
30.1N   87.6W              75 74  200/ 12/ 14 1009.9F   5/ 6   3/ 6
29.2N   88.2W              76 76  210/ 10/ 12 1010.5
28.8N   86.0W              76 75  170/ 14/ 17 1011.3F   4/ 7   2/ 7
PANAMA CITY BEAC           75 75  170/ 15/ 18 1011.7S
TOWER C                    74     190/ 14/ 16 1013.3F
28.5N   84.5W              74 74  170/ 12/ 16 1012.8R   3/ 6   2/ 6

**********************************************************************
  Louisiana
100 PM CDT THU APR 27 2017

LAZ040-048-061>063-065-066-069-271900-
SOUTHEAST LOUISIANA
  
CITY           SKY/WX    TMP DP  RH WIND       PRES   REMARKS
N.O. INTL ARPT SUNNY     73  60  63 VRB5      29.83F                  
6HR MIN TEMP:  66; 6HR MAX TEMP:  73;                                

N.O. LAKEFRONT SUNNY     70  60  70 NW7       29.85S                  
6HR MIN TEMP:  68; 6HR MAX TEMP:  72;                                

N.O. DOWNTOWN*   N/A     75  60  59 N5          N/A                   
6HR MIN TEMP:  68; 6HR MAX TEMP:  75;                                

RESERVE*       NOT AVBL                                               
SLIDELL        SUNNY     79  59  50 VRB5      29.82F                  
6HR MIN TEMP:  63; 6HR MAX TEMP:  79;                                

BATON ROUGE    SUNNY     73  56  54 VRB5      29.84F                  
6HR MIN TEMP:  58; 6HR MAX TEMP:  73;                                

BOOTHVILLE     CLOUDY    74  66  76 NE5       29.84F                  
6HR MIN TEMP:  71; 6HR MAX TEMP:  76;                                

BELLE CHASSE   MOSUNNY   80  62  54 VRB6      29.83S                  
BOGALUSA*      NOT AVBL                                               
GALLIANO*      CLEAR     78  61  56 NE6       29.82F                  
6HR MIN TEMP:  62; 6HR MAX TEMP:  78;                                

NEW ROADS*     FAIR      68  55  61 CALM      29.85F                  
6HR MIN TEMP:  56; 6HR MAX TEMP:  69;                                

GONZALES*      FAIR      73  57  58 CALM      29.83F                  
6HR MIN TEMP:  60; 6HR MAX TEMP:  73;                                

HAMMOND*       SUNNY     73  54  49 CALM      29.84F                  
HOUMA*         SUNNY     79  61  53 E5        29.82F                  
PORT FOURCHON* MOCLDY    75  63  64 NE9       29.82F                  

**********************************************************************
  Mississippi
100 PM CDT THU APR 27 2017

MSZ080>082-271900-
COASTAL MISSISSIPPI
  
CITY           SKY/WX    TMP DP  RH WIND       PRES   REMARKS
BAY ST LOUIS   SUNNY     79  55  44 VRB3      29.83F                  
BILOXI         MOSUNNY   81  62  50 S6        29.81F                  
6HR MIN TEMP:  66; 6HR MAX TEMP:  81;                                

PASCAGOULA     SUNNY     84  60  44 CALM      29.81F                  
6HR MIN TEMP:  67; 6HR MAX TEMP:  85;                                

GULFPORT       MOSUNNY   81  63  54 VRB3      29.81F                  
6HR MIN TEMP:  66; 6HR MAX TEMP:  82;                                

About Us | Coastal Marine Forecast | Offshore Marine Forecast
Gulf Coast Tides | Hourly Weather Observations | Weather Radar
Sea Surface Temperatures | Solar/Lunar Data | Hurricane Advisories | Home
     
USA Logo Dr. Bill's Marine Weather
Last date changed: December 9, 2014 4:08 PM
www.gulfmarineweather.com/hourlyweatherobservations.shtml
Contact Us